Regional Weather Roundup
Issued by NWS

Home | Current Version | Previous Version | Text Only | Print | Product List | Glossary Off
Versions: 1 2 3 4 5 6 7 8 9 10 11 12 13 14 15 16 17 18 19 20 21 22 23 24 25 26 27 28 29 30 31 32 33 34 35 36 37 38 39 40 41 42 43 44 45 46 47 48 49 50

000
ASUS43 KMKX 050011
RWRWI

WISCONSIN REGIONAL WEATHER ROUNDUP
NATIONAL WEATHER SERVICE MILWAUKEE/SULLIVAN WI
700 PM CDT FRI SEP 04 2015

NOTE: "FAIR" INDICATES FEW OR NO CLOUDS BELOW 12,000 FEET WITH NO
SIGNIFICANT WEATHER AND/OR OBSTRUCTIONS TO VISIBILITY.

WIZ001-002-006>008-014>016-023>028-050100-
NORTHWEST WISCONSIN

CITY           SKY/WX    TMP DP  RH WIND       PRES   REMARKS
SUPERIOR ARPT  FAIR      60  58  91 NE7       29.96S
6HR MIN TEMP:  60; 6HR MAX TEMP:  67;

ASHLAND        FAIR      67  64  90 N6        29.98R
6HR MIN TEMP:  67; 6HR MAX TEMP:  79;

HAYWARD        FAIR      79  68  69 SE7       29.99R HX  81
6HR MIN TEMP:  79; 6HR MAX TEMP:  83;

SIREN          FAIR      82  71  69 SE7       29.95R HX  86
6HR MIN TEMP:  82; 6HR MAX TEMP:  86;

CUMBERLAND     FAIR      77  70  78 SE7       29.98R
RICE LAKE      FAIR      79  70  74 E8        29.99R HX  82
6HR MIN TEMP:  79; 6HR MAX TEMP:  83;

CHETEK         FAIR      79  72  79 SE8       29.97S HX  82
6HR MIN TEMP:  79; 6HR MAX TEMP:  84;

LADYSMITH      FAIR      79  66  65 SE3       30.02R HX  81
6HR MIN TEMP:  79; 6HR MAX TEMP:  84;

EAU CLAIRE     FAIR      81  71  71 E8        29.96R HX  85
6HR MIN TEMP:  81; 6HR MAX TEMP:  86;

MENOMONIE      FAIR      82  71  68 SE7       29.97R HX  86
6HR MIN TEMP:  82; 6HR MAX TEMP:  88;

NEW RICHMOND   FAIR      81  70  70 SE6       29.95R HX  84
6HR MIN TEMP:  81; 6HR MAX TEMP:  85;

OSCEOLA        FAIR      82  72  70 SE7       29.96R HX  87
6HR MIN TEMP:  82; 6HR MAX TEMP:  86;

$$

WIZ003>005-009-010-017-018-050100-
NORTH CENTRAL WISCONSIN

CITY           SKY/WX    TMP DP  RH WIND       PRES   REMARKS
MANITOWISH WTR FAIR      76  67  73 CALM      30.04R
6HR MIN TEMP:  76; 6HR MAX TEMP:  82;

ARBOR VITAE    FAIR      77  66  68 CALM      30.04R
6HR MIN TEMP:  77; 6HR MAX TEMP:  83;

WOODRUFF       FAIR      77  66  68 CALM      30.04R
6HR MIN TEMP:  77; 6HR MAX TEMP:  83;

RHINELANDER    FAIR      76  65  68 SE6       30.06R
6HR MIN TEMP:  76; 6HR MAX TEMP:  83;

EAGLE RIVER    FAIR      76  62  61 SE3       30.04S
6HR MIN TEMP:  76; 6HR MAX TEMP:  82;

LAND O LAKES   FAIR      76  64  66 SE6       30.05F
6HR MIN TEMP:  76; 6HR MAX TEMP:  83; 6HR PCP:  0.03;

PHILLIPS       FAIR      78  67  69 SE7       30.02S HX  80
6HR MIN TEMP:  78; 6HR MAX TEMP:  82;

TOMAHAWK       FAIR      75  66  74 CALM      30.04S
6HR MIN TEMP:  75; 6HR MAX TEMP:  83;

MEDFORD        FAIR      74  68  81 SE5       30.03S
6HR MIN TEMP:  74; 6HR MAX TEMP:  79;

MERRILL        FAIR      77  67  72 S5        30.05R
6HR MIN TEMP:  77; 6HR MAX TEMP:  82;

$$

WIZ029-030-035-036-043>047-050100-
CENTRAL WISCONSIN

CITY           SKY/WX    TMP DP  RH WIND       PRES   REMARKS
WAUSAU         FAIR      77  66  68 S8        30.03R
6HR MIN TEMP:  77; 6HR MAX TEMP:  83;

MOSINEE        PTCLDY    75  68  78 SE5       30.04S
MARSHFIELD     FAIR      77  64  64 E8        30.02S
6HR MIN TEMP:  73; 6HR MAX TEMP:  81;

STEVENS POINT  FAIR      73  66  78 SE3       30.04R
6HR MIN TEMP:  69; 6HR MAX TEMP:  78;

WAUPACA        FAIR      76  69  81 S3        30.03S
6HR MIN TEMP:  73; 6HR MAX TEMP:  82;

WAUTOMA        FAIR      74  68  81 E5        30.04R
6HR MIN TEMP:  75; 6HR MAX TEMP:  81;

WISC RAPIDS    FAIR      76  65  68 E9        30.04R
6HR MIN TEMP:  74; 6HR MAX TEMP:  82;

CAMP DOUGLAS   FAIR      78  78  97 E8        29.99S HX  82
6HR MIN TEMP:  78; 6HR MAX TEMP:  83;

$$

WIZ011>013-019>022-031-037>040-048>050-050100-
NORTHEAST WISCONSIN

CITY           SKY/WX    TMP DP  RH WIND       PRES   REMARKS
ANTIGO         FAIR      73  66  80 SE8       30.06S
SHAWANO        NOT AVBL
OCONTO         FAIR      70  69  95 CALM      30.04S
6HR MIN TEMP:  70; 6HR MAX TEMP:  76; 6HR PCP:  0.07;

STURGEON BAY   FAIR      70  64  83 E5        30.07S
6HR MIN TEMP:  70; 6HR MAX TEMP:  73;

GREEN BAY      FAIR      73  67  81 E8        30.04R
6HR MIN TEMP:  73; 6HR MAX TEMP:  80;

MANITOWOC      FAIR      65  63  93 MISG      30.05S
6HR MIN TEMP:  65; 6HR MAX TEMP:  76;

APPLETON       MOCLDY    73  64  73 VRB3      30.02S
CLINTONVILLE   FAIR      73  64  73 E6        30.03S
OSHKOSH        FAIR      72  66  81 CALM      30.04R
6HR MIN TEMP:  71; 6HR MAX TEMP:  75;

$$

WIZ032>034-041-042-053>061-050100-
SOUTHWEST WISCONSIN

CITY           SKY/WX    TMP DP  RH WIND       PRES   REMARKS
LA CROSSE      FAIR      85  70  60 SE7       29.95R HX  89
6HR MIN TEMP:  85; 6HR MAX TEMP:  89;

SPARTA         FAIR      81  70  70 E6        29.99R HX  84
6HR MIN TEMP:  81; 6HR MAX TEMP:  87;

VIROQUA        FAIR      82  71  69 SE5       30.01R HX  86
6HR MIN TEMP:  82; 6HR MAX TEMP:  87;

BOSCOBEL       FAIR      81  77  88 E3        29.97R HX  88
6HR MIN TEMP:  81; 6HR MAX TEMP:  92; 6HR PCP:  0.06;

PRAIRIE DU CHI FAIR      85  68  56 CALM      29.96R HX  88
6HR MIN TEMP:  85; 6HR MAX TEMP:  89;

PLATTEVILLE    FAIR      83  74  72 SE5       29.99S HX  90
6HR MIN TEMP:  83; 6HR MAX TEMP:  87;

$$

WIZ056-057-062-063-064-067-068-050100-
SOUTH CENTRAL WISCONSIN

CITY           SKY/WX    TMP DP  RH WIND       PRES   REMARKS
REEDSBURG      FAIR      80  72  76 E6        29.99S HX  84
6HR MIN TEMP:  79; 6HR MAX TEMP:  85;

BARABOO/DELLS  FAIR      79  68  69 E6        30.01R HX  81
6HR MIN TEMP:  78; 6HR MAX TEMP:  83;

LONE ROCK      FAIR      81  74  79 NE5       29.98S HX  86
6HR MIN TEMP:  81; 6HR MAX TEMP:  88;

MINERAL POINT  FAIR      82  70  65 CALM      30.01R HX  86
MADISON        FAIR      79  70  74 E8        30.00R HX  82
6HR MIN TEMP:  79; 6HR MAX TEMP:  84;

MIDDLETON      FAIR      80  72  76 NE3       30.01R HX  83
6HR MIN TEMP:  80; 6HR MAX TEMP:  88;

WATERTOWN      FAIR      76  73  91 E6        30.01S
6HR MIN TEMP:  76; 6HR MAX TEMP:  82;

MONROE         FAIR      82  70  65 SE3       30.00R HX  86
JANESVILLE     PTCLDY    82  73  74 CALM      29.98S HX  88
$$

WIZ051-052-058>065-066-070>072-050100-
SOUTHEAST WISCONSIN

CITY           SKY/WX    TMP DP  RH WIND       PRES   REMARKS
MILWAUKEE      MOCLDY    68  64  87 E8        30.04R
6HR MIN TEMP:  68; 6HR MAX TEMP:  77;

WAUKESHA       PTCLDY    72  64  78 E9        30.05R
MILWAUKEE/TIMM MOCLDY    70  63  78 E5        30.05R
RACINE         CLOUDY    68  65  90 E6        30.06S
6HR MIN TEMP:  68; 6HR MAX TEMP:  77;

BURLINGTON     FAIR      71  64  78 E9        30.04R
6HR MIN TEMP:  71; 6HR MAX TEMP:  81;

KENOSHA        CLOUDY    68  66  93 E7        30.05R
6HR MIN TEMP:  68; 6HR MAX TEMP:  79;

FOND DU LAC    FAIR      73  66  78 E5        30.04S
6HR MIN TEMP:  73; 6HR MAX TEMP:  77;

SHEBOYGAN      FAIR      69  65  86 E6        30.05R
6HR MIN TEMP:  69; 6HR MAX TEMP:  76;

WEST BEND      MOCLDY    70  63  78 E3        30.05R
JUNEAU         FAIR      75  68  78 E8        30.04R
6HR MIN TEMP:  74; 6HR MAX TEMP:  81;

$$

LSZ147-162-050100-
LAKE SUPERIOR

STATION/POSITION TIME  TEMP    WIND        PRES    WAVE
                       AIR SEA DIR/SP/G            HT/PER
                 (UTC) (F)     (DEG/KT/KT) (MB)    (FT/S)
W MID LAKE BUOY  2350   64 58   70/ 12/ 14 1015.7R   1/ 3
DEVILS ISLAND    0000   62     100/  8/ 10 1014.9F
PORT WING        2340   54      30/ 16/ 17 1014.6R
SAXON HARBOR     2300   71        CALM     1014.6S
$$

LMZ867-665-643>646-050100-
LAKE MICHIGAN

STATION/POSITION TIME  TEMP    WIND        PRES    WAVE
                       AIR SEA DIR/SP/G            HT/PER



USA.gov is the U.S. government's official web portal to all federal, state and local government web resources and services.